Date,TemperatureHighF,TemperatureAvgF,TemperatureLowF,DewpointHighF,DewpointAvgF,DewpointLowF,HumidityHigh,HumidityAvg,HumidityLow,PressureMaxIn,PressureMinIn,WindSpeedMaxMPH,WindSpeedAvgMPH,GustSpeedMaxMPH,PrecipitationSumIn
2013-2-1,22.1,15.1,8.6,4.1,-1.2,-8.1,54,48,41,29.17,28.58,13,3,13,0.00
2013-2-2,28.0,14.2,2.7,7.4,-2.7,-13.4,55,46,39,29.29,29.12,8,2,8,0.00
2013-2-3,33.3,15.1,0.7,12.3,-1.5,-11.7,55,48,32,29.14,28.85,6,1,6,0.00
2013-2-4,27.9,14.7,4.8,6.2,-3.0,-16.1,57,45,35,29.00,28.79,14,2,14,0.00
2013-2-5,26.6,10.6,-6.0,0.9,-11.4,-25.5,40,36,29,29.14,29.00,6,1,6,0.00
2013-2-6,29.8,17.5,4.8,12.6,-1.4,-16.4,53,43,36,29.47,28.97,10,2,10,0.00
2013-2-7,23.5,8.7,-4.4,-1.3,-14.8,-24.5,37,33,28,29.68,29.44,6,2,6,0.00
2013-2-8,26.6,18.3,10.2,11.4,0.1,-15.7,58,45,29,29.56,29.03,6,1,6,0.00
2013-2-9,27.7,12.5,-3.3,5.1,-5.1,-22.7,57,45,36,29.44,29.03,11,2,11,0.00
2013-2-10,35.4,7.5,-15.0,8.7,-12.6,-33.3,45,39,31,29.56,29.38,5,1,5,0.00
2013-2-11,33.6,17.5,1.6,25.4,1.8,-14.8,74,50,41,29.44,28.67,7,1,7,0.00
2013-2-12,36.3,33.5,30.2,26.6,23.7,18.6,75,67,59,28.91,28.67,12,2,12,0.04
2013-2-13,41.7,31.4,27.7,26.3,19.8,17.8,71,62,49,28.97,28.88,4,0,4,0.00
2013-2-14,39.4,29.4,23.0,24.5,16.4,9.4,75,59,40,29.09,28.88,6,0,6,0.00
2013-2-15,47.5,33.6,22.5,27.9,17.6,10.9,67,52,38,29.09,28.97,12,2,12,0.04
2013-2-16,38.8,26.6,15.4,14.3,5.3,-3.5,51,40,32,29.12,29.03,9,2,9,0.00
2013-2-17,17.8,12.3,8.2,-1.4,-6.2,-10.8,44,42,40,29.03,28.73,13,3,13,0.00
2013-2-18,27.7,12.7,3.9,0.6,-11.7,-22.8,41,33,22,29.26,28.91,15,3,15,0.00
2013-2-19,43.7,25.4,1.6,19.4,0.4,-24.6,58,34,23,29.29,28.73,11,1,11,0.00
2013-2-20,32.9,27.6,19.2,20.8,13.4,5.4,62,55,41,28.85,28.67,12,2,12,0.00
2013-2-21,22.1,15.8,8.4,7.3,0.5,-4.8,56,50,42,29.44,28.85,12,3,12,0.00
2013-2-22,41.7,26.5,16.0,19.2,10.9,3.8,60,52,39,29.56,29.35,4,1,4,0.04
2013-2-23,36.7,31.3,24.1,23.7,17.9,11.1,72,58,45,29.38,29.09,8,1,8,0.00
2013-2-24,40.5,33.3,30.4,28.9,24.6,22.5,75,70,61,29.09,28.91,6,0,6,0.13
2013-2-25,39.6,33.5,31.1,27.5,24.8,23.5,77,71,58,29.38,29.09,6,1,6,0.04
2013-2-26,49.8,36.0,29.8,30.2,23.5,19.5,78,62,39,29.47,29.32,8,1,8,0.04
2013-2-27,39.2,33.8,30.2,27.5,23.2,18.2,79,65,53,29.32,28.76,6,1,6,0.04
2013-2-28,54.3,36.7,30.9,38.2,27.9,24.9,82,71,47,28.79,28.70,4,0,4,0.25